When you browse on this site, cookies collect data to enhance your experience and personalize the content and advertising you see.
Visit our Privacy Policy to learn more. By continuing to use the site, you agree to this use of cookies and data.
  • In Slovakia
  • List of Countries
  • For 7 days
  • Water Temperature
  • Satellite Maps
  • Weather Map
  • Weather Widgets
  • user-avatar
    Login

    Hourly Weather Budziska

    Today, 19 December, Wednesday

    Time Temperature Precipitation Wind Pressure Humidity
    00:00 -2°C° 0 mm 2 mps 754 mmHg 89%
    01:00 -2°C° 0 mm 2 mps 753 mmHg 89%
    02:00 -2°C° 0 mm 2 mps 753 mmHg 89%
    03:00 -3°C° 0 mm 2 mps 753 mmHg 88%
    04:00 -3°C° 0 mm 2 mps 753 mmHg 88%
    05:00 -4°C° 0 mm 3 mps 753 mmHg 88%
    06:00 -4°C° 0 mm 3 mps 753 mmHg 87%
    07:00 -4°C° 0 mm 3 mps 752 mmHg 89%
    08:00 -2°C° 0 mm 3 mps 752 mmHg 85%
    09:00 -2°C° 0 mm 3 mps 752 mmHg 82%
    10:00 -2°C° 0 mm 4 mps 752 mmHg 79%
    11:00 -1°C° 0 mm 4 mps 751 mmHg 77%
    12:00 -1°C° 0 mm 4 mps 751 mmHg 75%
    13:00 0°C° 0 mm 4 mps 751 mmHg 74%
    14:00 -1°C° 0 mm 4 mps 751 mmHg 76%
    15:00 -2°C° 0 mm 4 mps 750 mmHg 78%
    16:00 -2°C° 0 mm 4 mps 750 mmHg 80%
    17:00 -3°C° 0 mm 4 mps 750 mmHg 81%
    18:00 -3°C° 0 mm 4 mps 750 mmHg 81%
    19:00 -3°C° 0 mm 4 mps 750 mmHg 81%
    20:00 -3°C° 0 mm 4 mps 750 mmHg 80%
    21:00 -3°C° 0 mm 4 mps 749 mmHg 80%
    22:00 -2°C° 0 mm 3 mps 749 mmHg 79%
    23:00 -2°C° 0 mm 3 mps 749 mmHg 78%

    Tomorrow, 20 December, Thursday

    Time Temperature Precipitation Wind Pressure Humidity
    00:00 -2°C° 0 mm 3 mps 749 mmHg 76%
    01:00 -1°C° 0 mm 3 mps 749 mmHg 75%
    02:00 -2°C° 0 mm 3 mps 749 mmHg 75%
    03:00 -2°C° 0 mm 3 mps 749 mmHg 75%
    04:00 -2°C° 0 mm 3 mps 748 mmHg 75%
    05:00 -2°C° 0 mm 3 mps 748 mmHg 76%
    06:00 -3°C° 0 mm 4 mps 748 mmHg 77%
    07:00 -4°C° 0 mm 4 mps 748 mmHg 77%
    08:00 -4°C° 0 mm 4 mps 749 mmHg 76%
    09:00 -4°C° 0 mm 5 mps 749 mmHg 76%
    10:00 -4°C° 0 mm 5 mps 749 mmHg 75%
    11:00 -4°C° 0 mm 5 mps 749 mmHg 75%
    12:00 -2°C° 0 mm 5 mps 748 mmHg 74%
    13:00 -2°C° 0 mm 5 mps 748 mmHg 74%
    14:00 -2°C° 0.1 mm 4 mps 748 mmHg 77%
    15:00 -2°C° 0.1 mm 4 mps 748 mmHg 79%
    16:00 -2°C° 0.1 mm 4 mps 748 mmHg 82%
    17:00 -2°C° 0.1 mm 4 mps 749 mmHg 83%
    18:00 -2°C° 0.1 mm 4 mps 749 mmHg 84%
    19:00 -2°C° 0.1 mm 4 mps 749 mmHg 85%
    20:00 -2°C° 0 mm 4 mps 749 mmHg 85%
    21:00 -2°C° 0 mm 4 mps 749 mmHg 85%
    22:00 -1°C° 0 mm 4 mps 749 mmHg 86%
    23:00 -1°C° 0 mm 4 mps 749 mmHg 86%

    Day after tomorrow, 21 December, Friday

    Time Temperature Precipitation Wind Pressure Humidity
    00:00 -1°C° 0 mm 4 mps 749 mmHg 87%
    01:00 -1°C° 0 mm 4 mps 749 mmHg 88%
    02:00 -1°C° 0 mm 4 mps 749 mmHg 88%
    03:00 -1°C° 0 mm 5 mps 748 mmHg 88%
    04:00 -1°C° 0 mm 5 mps 748 mmHg 88%
    05:00 -1°C° 0 mm 5 mps 748 mmHg 88%
    06:00 -1°C° 0 mm 5 mps 748 mmHg 88%
    07:00 0°C° 0 mm 5 mps 748 mmHg 88%
    08:00 0°C° 0.2 mm 5 mps 748 mmHg 86%
    09:00 0°C° 0.2 mm 5 mps 747 mmHg 84%
    10:00 +1°C° 0.2 mm 6 mps 747 mmHg 83%
    11:00 +1°C° 0.2 mm 5 mps 746 mmHg 82%
    12:00 +1°C° 0.2 mm 5 mps 746 mmHg 81%
    13:00 +1°C° 0.2 mm 5 mps 745 mmHg 80%
    14:00 +1°C° 0.6 mm 5 mps 744 mmHg 82%
    15:00 +1°C° 0.6 mm 5 mps 743 mmHg 83%
    16:00 +1°C° 0.6 mm 5 mps 743 mmHg 84%
    17:00 +1°C° 0.6 mm 6 mps 742 mmHg 84%
    18:00 +1°C° 0.6 mm 6 mps 742 mmHg 83%
    19:00 +2°C° 0.6 mm 7 mps 741 mmHg 83%
    20:00 +2°C° 0.6 mm 7 mps 741 mmHg 83%
    21:00 +1°C° 0.6 mm 8 mps 740 mmHg 84%
    22:00 +1°C° 0.6 mm 8 mps 739 mmHg 84%
    23:00 +2°C° 0.6 mm 8 mps 739 mmHg 85%

    22 December, Saturday

    Time Temperature Precipitation Wind Pressure Humidity
    00:00 +3°C° 0.6 mm 7 mps 739 mmHg 86%
    01:00 +4°C° 0.6 mm 7 mps 739 mmHg 86%
    02:00 +4°C° 0.1 mm 6 mps 739 mmHg 87%
    03:00 +4°C° 0.1 mm 6 mps 739 mmHg 88%
    04:00 +5°C° 0.1 mm 5 mps 739 mmHg 88%
    05:00 +5°C° 0 mm 5 mps 739 mmHg 88%
    06:00 +5°C° 0 mm 5 mps 739 mmHg 89%
    07:00 +3°C° 0 mm 5 mps 739 mmHg 89%
    08:00 +5°C° 0.2 mm 5 mps 739 mmHg 89%
    09:00 +5°C° 0.2 mm 5 mps 739 mmHg 90%
    10:00 +4°C° 0.2 mm 6 mps 739 mmHg 90%
    11:00 +5°C° 0.6 mm 5 mps 739 mmHg 90%
    12:00 +6°C° 0.6 mm 5 mps 739 mmHg 90%
    13:00 +6°C° 0.6 mm 5 mps 739 mmHg 90%
    14:00 +6°C° 0.1 mm 5 mps 739 mmHg 87%
    15:00 +6°C° 0.1 mm 5 mps 739 mmHg 84%
    16:00 +5°C° 0.1 mm 6 mps 739 mmHg 81%
    17:00 +5°C° 0.1 mm 6 mps 739 mmHg 81%
    18:00 +4°C° 0.1 mm 6 mps 739 mmHg 81%
    19:00 +4°C° 0.1 mm 6 mps 740 mmHg 81%
    20:00 +4°C° 0.2 mm 6 mps 740 mmHg 81%
    21:00 +4°C° 0.2 mm 6 mps 741 mmHg 81%
    22:00 +4°C° 0.2 mm 6 mps 741 mmHg 81%
    23:00 +4°C° 0.1 mm 7 mps 742 mmHg 81%

    23 December, Sunday

    Time Temperature Precipitation Wind Pressure Humidity
    00:00 +4°C° 0.1 mm 7 mps 742 mmHg 81%
    01:00 +4°C° 0.1 mm 7 mps 743 mmHg 81%
    02:00 +3°C° 0.1 mm 6 mps 743 mmHg 82%
    03:00 +3°C° 0.1 mm 5 mps 744 mmHg 84%
    04:00 +3°C° 0.1 mm 4 mps 745 mmHg 85%
    05:00 +3°C° 0.1 mm 4 mps 745 mmHg 87%
    06:00 +3°C° 0.1 mm 3 mps 746 mmHg 89%
    07:00 +4°C° 0.1 mm 2 mps 746 mmHg 90%
    08:00 +4°C° 0.2 mm 2 mps 747 mmHg 90%
    09:00 +4°C° 0.2 mm 2 mps 747 mmHg 90%
    10:00 +5°C° 0.2 mm 2 mps 747 mmHg 89%
    11:00 +5°C° 0.2 mm 2 mps 747 mmHg 87%
    12:00 +4°C° 0.2 mm 3 mps 747 mmHg 85%
    13:00 +5°C° 0.2 mm 3 mps 747 mmHg 82%
    14:00 +4°C° 0.1 mm 3 mps 747 mmHg 83%
    15:00 +4°C° 0.1 mm 3 mps 747 mmHg 85%
    16:00 +3°C° 0.1 mm 3 mps 748 mmHg 86%
    17:00 +3°C° 0 mm 3 mps 748 mmHg 86%
    18:00 +3°C° 0 mm 3 mps 748 mmHg 86%
    19:00 +2°C° 0 mm 3 mps 748 mmHg 86%
    20:00 +2°C° 0 mm 3 mps 748 mmHg 86%
    21:00 +2°C° 0 mm 3 mps 748 mmHg 86%
    22:00 +2°C° 0 mm 3 mps 749 mmHg 86%
    23:00 +2°C° 0.1 mm 3 mps 749 mmHg 86%

    24 December, Monday

    Time Temperature Precipitation Wind Pressure Humidity
    00:00 +2°C° 0.1 mm 3 mps 749 mmHg 85%
    01:00 +2°C° 0.1 mm 3 mps 749 mmHg 85%
    02:00 +2°C° 0.1 mm 3 mps 749 mmHg 86%
    03:00 +2°C° 0.1 mm 3 mps 749 mmHg 86%
    04:00 +2°C° 0.1 mm 3 mps 749 mmHg 87%
    05:00 +1°C° 0.1 mm 4 mps 748 mmHg 87%
    06:00 +1°C° 0.1 mm 4 mps 748 mmHg 86%
    07:00 +1°C° 0.1 mm 4 mps 748 mmHg 86%
    08:00 +1°C° 0.2 mm 4 mps 748 mmHg 85%
    09:00 +2°C° 0.2 mm 5 mps 749 mmHg 85%
    10:00 +2°C° 0.2 mm 5 mps 749 mmHg 84%
    11:00 +2°C° 0.1 mm 5 mps 749 mmHg 83%
    12:00 +2°C° 0.1 mm 5 mps 749 mmHg 81%
    13:00 +2°C° 0.1 mm 5 mps 750 mmHg 80%
    14:00 +2°C° 0.1 mm 5 mps 750 mmHg 81%
    15:00 +3°C° 0.1 mm 4 mps 751 mmHg 82%
    16:00 +2°C° 0.1 mm 3 mps 751 mmHg 83%
    17:00 +2°C° 0 mm 3 mps 752 mmHg 85%
    18:00 +2°C° 0 mm 3 mps 752 mmHg 87%
    19:00 +1°C° 0 mm 3 mps 753 mmHg 88%
    20:00 +2°C° 0.1 mm 2 mps 753 mmHg 89%
    21:00 +2°C° 0.1 mm 2 mps 754 mmHg 89%
    22:00 +2°C° 0.1 mm 2 mps 754 mmHg 90%
    23:00 +2°C° 0.1 mm 2 mps 754 mmHg 90%
    Show more